Terminal Aerodrome Forecast
Issued by NWS

Home | Current Version | Previous Version | Text Only | Print | Product List | Glossary On
Versions: 1 2 3 4 5 6 7 8 9 10 11 12 13 14 15 16 17 18 19 20 21 22 23 24 25 26 27 28 29 30 31 32 33 34 35 36 37 38 39 40 41 42 43 44 45 46 47 48 49 50
000
FTUS44 KHGX 252107
TAFSGR
TAFSGR
TAF AMD
KSGR 252107Z 2521/2618 16021G27KT P6SM VCSH FEW035 BKN080
      TEMPO 2522/2602 VRB35KT TSRA BKN030CB
     FM260400 14010KT P6SM SCT025
     FM261500 17012KT P6SM BKN015=

USA.gov is the U.S. government's official web portal to all federal, state and local government web resources and services.